Regional Weather Roundup
Issued by NWS

Home | Current Version | Previous Version | Text Only | Print | Product List | Glossary Off
Versions: 1 2 3 4 5 6 7 8 9 10 11 12 13 14 15 16 17 18 19 20 21 22 23 24 25 26 27

000
ASUS45 KTFX 162010
RWRMT
MONTANA REGIONAL WEATHER ROUNDUP
NATIONAL WEATHER SERVICE GREAT FALLS MT
100 PM MST SAT DEC 16 2017

NOTE: "FAIR" INDICATES FEW OR NO CLOUDS BELOW 12000 FEET WITH NO
SIGNIFICANT WEATHER AND/OR OBSTRUCTIONS TO VISIBILITY.

MTZ001>007-043-162100-
WEST OF THE DIVIDE

CITY           SKY/WX    TMP DP  RH WIND       PRES   REMARKS
KALISPELL      CLOUDY    31  26  82 CALM      30.10S
MISSOULA       CLOUDY    32  25  75 N6        30.10S WCI  26
BUTTE          CLOUDY    28  17  63 NW14      29.98R WCI  17
MULLAN PASS    HAZE      21  15  78 CALM      30.02S VSB 1/4
ANACONDA         N/A     28  21  74 N3        30.01R
DEER LODGE       N/A     30  23  74 N12       30.03S WCI  21
EUREKA           N/A     28  21  74 MISG      30.14F
HAMILTON         N/A     30  28  93 N3        30.09S
LIBBY            N/A     34  23  64 S5        30.14S
PLAINS           N/A     32  26  78 E1        30.15S
RONAN            N/A     29  27  92 CALM      30.14S
$$

MTZ008-052>055-162100-
SOUTHWEST MONTANA

CITY           SKY/WX    TMP DP  RH WIND       PRES   REMARKS
BOZEMAN        LGT SNOW  31  28  89 W12       29.97S VSB 3/4 WCI  22
DILLON         LGT SNOW  29  25  85 E7        29.96R FOG     WCI  22
W YELLOWSTONE  PTSUNNY   25  21  86 SW5       29.85F
ENNIS          LGT SNOW  28  25  86 N14       29.98S WCI  17
THREE FORKS      N/A     32  29  89 CALM      29.98R
TWIN BRIDGES     N/A     32  19  58 N2        29.96
$$

MTZ009-010-012-014-046-048-049-054-162100-
EAST SLOPES AND CENTRAL MONTANA

CITY           SKY/WX    TMP DP  RH WIND       PRES   REMARKS
CUT BANK       CLOUDY    28  26  92 W7        29.99S WCI  21
GREAT FALLS    PTSUNNY   33  27  78 S6        30.01S WCI  28
MALMSTROM AFB  CLOUDY    32  28  85 S5        30.02S
HELENA         CLOUDY    35  24  64 NW7       30.00S WCI  29
BOWMANS CRNR   FAIR      30  27  88 S7        29.96F WCI  23
CHOTEAU          N/A     30  25  80 CALM      30.01S
FAIRFIELD      FAIR      33  23  67 CALM      29.99F
POWER          LGT RAIN  31  25  80 S6        29.99F WCI  25
RAYNESFORD     FAIR      30  25  81 SE9       29.99F WCI  22
ULM            PTSUNNY   30  29  95 SW5       30.01S
$$

MTZ011-013-016-021-045-047-050-051-162100-
NORTH CENTRAL MONTANA

CITY           SKY/WX    TMP DP  RH WIND       PRES   REMARKS
HAVRE          CLOUDY    31  30  96 SW3       30.03S
LEWISTOWN      CLOUDY    30  27  88 NW7       29.98R WCI  23
N BAR RANCH    FAIR      32  18  55 NE6       29.98S WCI  26
CHINOOK          N/A     34  30  86 W7        30.03S WCI  28
DENTON         PTSUNNY   35  26  70 MISG      29.97S
GEYSER         LGT SNOW  29  27  92 CALM      29.99S
GRASS RANGE    PTSUNNY   35  22  59 E3        29.95S
STANFORD       LGT SNOW  27  26  95 NW3       29.98S
WINIFRED       PTSUNNY   35  27  72 NW5       29.98S
$$

MTZ017>020-022>027-061-062-162100-
NORTHEAST MONTANA

CITY           SKY/WX    TMP DP  RH WIND       PRES   REMARKS
GLENDIVE       FAIR      37  21  52 W8        29.99S WCI  31
JORDAN           N/A     38  23  55 NW8       29.98S
SIDNEY         FAIR      38  21  50 NW12      29.96F WCI  30
WOLF POINT     FAIR      32  25  75 SW9       29.98F WCI  24
MALTA          CLOUDY    37  28  70 W9G16     30.01S WCI  31
PLENTYWOOD       N/A     36  18  48 NW17G24   29.92S WCI  25
POPLAR           N/A     34  21  60 W9        29.97F WCI  26
SCOBEY           N/A     37  13  37 W20       29.91F WCI  26
$$

MTZ028>42-056>058-162100-
SOUTHCENTRAL AND SOUTHEAST MONTANA

CITY           SKY/WX    TMP DP  RH WIND       PRES   REMARKS
BAKER          FAIR      33  28  81 W9        29.97R WCI  25
BILLINGS       LGT SNOW  31  30  96 NE6       29.98S FOG     WCI  25
LIVINGSTON     LGT SNOW  29  27  92 E14       29.94R FOG     WCI  18
MILES CITY     CLOUDY    37  26  64 N6        29.99F
BIG TIMBER     CLOUDY    28  27  93 NE6       29.99R FOG     WCI  22
EKALAKA          N/A     33  23  67 NW8       29.93F WCI  26
FORSYTH          N/A     37  25  60 CALM      30.00R
LAUREL         FOG       30  28  93 E8        29.99S VSB 1   WCI  23
ROUNDUP          N/A     34  24  67 E2        29.91R
$$

REGIONAL REPORTS...DAKOTAS

CITY           SKY/WX    TMP DP  RH WIND       PRES   REMARKS
WILLISTON      FAIR      34  23  64 W12       29.95S WCI  25
MINOT          FAIR      41  27  57 W10       29.89S
DICKINSON      FAIR      34  24  67 NW12      29.92S WCI  25
BEACH          FAIR      32  27  80 W9        29.99S WCI  24
CROSBY         FAIR      37  21  52 W15       29.91R WCI  28
TIOGA          FAIR      32  25  74 W13       29.93R WCI  22
WATFORD CITY   FAIR      34  23  64 W12       29.94F WCI  25
BISMARCK       PTSUNNY   40  32  73 NW10      29.94S
GRAND FORKS    PTSUNNY   30  26  85 NW7       29.90R WCI  23
FARGO          CLOUDY    32  27  81 NW6       29.92R WCI  26
BUFFALO SD       N/A     36  25  64 NW16      29.88S WCI  26
RAPID CITY     CLOUDY    36  24  62 N21       29.93F WCI  25
$$

REGIONAL REPORTS...WYOMING/IDAHO/WASHINGTON

CITY           SKY/WX    TMP DP  RH WIND       PRES   REMARKS
GILLETTE       CLOUDY    31  26  82 NE12      29.91F WCI  22
SHERIDAN       LGT SNOW  31  29  92 NE3       29.95S VSB 1
BUFFALO WY     LGT SNOW  30  25  81 NE6       29.92S VSB 1   WCI  24
CODY           LGT SNOW  30  27  86 N8        29.88R FOG     WCI  23
YELLOWSTONE LA   N/A     22  20  92 CALM      29.84S
IDAHO FALLS    LGT SNOW  23  22  96 SW7       29.96S FOG     WCI  15
SALMON         CLOUDY    33  22  63 SE3       30.06
BOISE          FAIR      32  26  78 NW18      30.10F WCI  20
SPOKANE        CLOUDY    24  24 100 S3        30.24R FOG
$$

REGIONAL REPORTS...ALBERTA

CITY           SKY/WX    TMP DP  RH WIND       PRES   REMARKS
EDMONTON       SUNNY     34  16  47 W15       29.87F WCI  24
CALGARY        MOSUNNY   36   7  30 W9        29.92F WCI  29
LETHBRIDGE     PTSUNNY   30  27  86 SE6       29.99F WCI  24
MEDICINE HAT   PTSUNNY   36  30  80 W9        30.00S WCI  29
$$

REGIONAL REPORTS...SASKATCHEWAN

CITY           SKY/WX    TMP DP  RH WIND       PRES   REMARKS
SWIFT CURRENT  SUNNY     27  16  63 W14       29.90S WCI  15
REGINA         MOSUNNY   34  21  60 W20       29.87R WCI  22
SASKATOON      PTSUNNY   32  25  74 W15G21    29.82S WCI  22
$$




USA.gov is the U.S. government's official web portal to all federal, state and local government web resources and services.